Weather History for Price, UT

Change the Weather History Date:

Monday, July 22, 2013

  Actual Average Record
Temperature  
Mean Temperature 80 °F -  
Max Temperature 99 °F 87 °F 99 °F (2003)
Min Temperature 63 °F 57 °F 45 °F (1975)
Cooling Degree Days 16    
Growing Degree Days 30 (Base 50)    
Moisture  
Dew Point 31 °F    
Average Humidity 17    
Maximum Humidity 27    
Minimum Humidity 8    
Precipitation  
Precipitation 0.00 in - - ()
Sea Level Pressure  
Sea Level Pressure 29.75 in    
Wind  
Wind Speed 7 mph (NNW)    
Max Wind Speed 13 mph    
Max Gust Speed 23 mph    
Visibility 10 miles    
Events      
Averages and records for this station are not official NWS values.
T = Trace of Precipitation, MM = Missing Value Source: NWS Daily Summary

Daily Weather History Graph

Daily Weather History Graph

Search for Another Location

Airport:

Trip Planner

Search our weather history database for the weather conditions in past years. The results will help you decide how hot, cold, wet, or windy it might be!

Date:

Astronomy

Jul. 22, 2013 Rise Set
Actual Time 6:13 AM MDT 8:44 PM MDT
Civil Twilight 5:42 AM MDT 9:15 PM MDT
Nautical Twilight 5:04 AM MDT 9:53 PM MDT
Astronomical Twilight 4:21 AM MDT 10:36 PM MDT
Moon 8:33 PM MDT 6:14 AM MDT
Length of Visible Light 15h 32m
Length of Day
14h 30m
Full, 100% of the Moon is Illuminated
Jul 22
Full
Jul 22
Full
Jul 29
Last Quarter
Aug 6
New
Aug 14
First Quarter

Hourly Weather History & Observations

Time (MDT) Temp. Dew Point Humidity Pressure Visibility Wind Dir Wind Speed Gust Speed Precip Events Conditions
12:53 AM 73.0 °F 26.1 °F 17% 29.72 in 10.0 mi North 6.9 mph - N/A   Clear
1:53 AM 70.0 °F 28.9 °F 22% 29.72 in 10.0 mi SSE 9.2 mph - N/A   Clear
2:53 AM 69.1 °F 30.9 °F 24% 29.74 in 10.0 mi NNE 10.4 mph - N/A   Clear
3:53 AM 66.9 °F 27.0 °F 22% 29.75 in 10.0 mi NNE 11.5 mph - N/A   Clear
4:53 AM 66.9 °F 27.0 °F 22% 29.76 in 10.0 mi NNE 9.2 mph - N/A   Clear
5:53 AM 63.0 °F 28.0 °F 27% 29.79 in 10.0 mi NNE 9.2 mph - N/A   Clear
6:53 AM 66.0 °F 30.0 °F 26% 29.81 in 10.0 mi NE 6.9 mph - N/A   Clear
7:53 AM 75.9 °F 32.0 °F 20% 29.78 in 10.0 mi Calm Calm - N/A   Clear
8:53 AM 80.1 °F 39.9 °F 24% 29.81 in 10.0 mi SE 4.6 mph - N/A   Clear
9:53 AM 82.0 °F 43.0 °F 25% 29.83 in 10.0 mi Variable 3.5 mph - N/A   Clear
10:53 AM 84.0 °F 42.1 °F 23% 29.81 in 10.0 mi South 3.5 mph - N/A   Clear
11:53 AM 88.0 °F 41.0 °F 19% 29.80 in 10.0 mi Variable 3.5 mph - N/A   Clear
12:53 PM 91.0 °F 37.0 °F 15% 29.78 in 10.0 mi Variable 6.9 mph - N/A   Clear
1:53 PM 95.0 °F 33.1 °F 11% 29.75 in 10.0 mi NW 8.1 mph - N/A   Clear
2:53 PM 98.1 °F 32.0 °F 10% 29.71 in 10.0 mi SSW 9.2 mph 16.1 mph N/A   Clear
3:53 PM 97.0 °F 30.9 °F 10% 29.72 in 10.0 mi SW 11.5 mph 17.3 mph N/A   Clear
4:53 PM 98.1 °F 27.0 °F 8% 29.69 in 10.0 mi NW 11.5 mph 23.0 mph N/A   Clear
5:53 PM 97.0 °F 28.0 °F 9% 29.70 in 10.0 mi West 10.4 mph - N/A   Clear
6:53 PM 96.1 °F 24.1 °F 8% 29.69 in 10.0 mi NW 12.7 mph 19.6 mph N/A   Clear
7:53 PM 91.0 °F 21.0 °F 8% 29.68 in 10.0 mi WNW 9.2 mph - N/A   Clear
8:53 PM 86.0 °F 25.0 °F 11% 29.70 in 10.0 mi NE 5.8 mph - N/A   Clear
9:53 PM 86.0 °F 25.0 °F 11% 29.73 in 10.0 mi Calm Calm - N/A   Clear
10:53 PM 80.1 °F 27.0 °F 14% 29.76 in 10.0 mi NNW 3.5 mph - N/A   Clear
11:53 PM 77.0 °F 26.1 °F 15% 29.75 in 10.0 mi North 3.5 mph - N/A   Clear